^^
No Wait Weather (KNEBELLE1) Station Historical Data
Daily Summary for May 21, 2019 Units:  Metric    English   Both
Daily Weekly Monthly Yearly Custom
  High: Low: Average:
Temperature: 12.8 °C 8 °C 9.4 °C
Dew Point: 12.5 °C 6.4 °C 8.6 °C
Humidity: 99% 82% 95%
Wind Speed: 14.5km/h 0km/h 1.4km/h
Wind Gust: 22.5km/h - -
Wind- - ENE
Pressure: 1008.7 hPa 988.7 hPa -
Precipitation: 19.05 mm    
Historical Graphs
 
 
Tabular Data for May 21, 2019
Time Temperature Dew Point Pressure Wind Wind Speed Wind Gust Humidity Rainfall Rate (Hourly) solar
00:04 9.3 °C 6.4 °C 1008.7 hPa Calm   6.4 km/h 82% 0 mm WeatherCatV3.04B91 W/m2
00:09 9.3 °C 6.4 °C 1008.7 hPa Calm     82% 0 mm WeatherCatV3.04B91 W/m2
00:14 9.3 °C 6.4 °C 1008.4 hPa Calm   6.4 km/h 82% 0 mm WeatherCatV3.04B91 W/m2
00:19 9.3 °C 6.4 °C 1008.4 hPa NE 6.4 km/h 6.4 km/h 82% 0 mm WeatherCatV3.04B91 W/m2
00:24 9.3 °C 6.4 °C 1008.4 hPa Calm   4.8 km/h 82% 0 mm WeatherCatV3.04B91 W/m2
00:29 9.3 °C 6.4 °C 1008 hPa Calm     82% 0 mm WeatherCatV3.04B91 W/m2
00:34 9.2 °C 6.5 °C 1008 hPa NE 8 km/h 8 km/h 83% 0 mm WeatherCatV3.04B91 W/m2
00:39 9.2 °C 6.4 °C 1008 hPa NE 1.6 km/h 6.4 km/h 83% 0 mm WeatherCatV3.04B91 W/m2
00:44 9 °C 6.4 °C 1007.7 hPa Calm   14.5 km/h 84% 0 mm WeatherCatV3.04B91 W/m2
00:49 8.9 °C 6.5 °C 1007.7 hPa Calm   9.7 km/h 85% 0 mm WeatherCatV3.04B91 W/m2
00:54 8.8 °C 6.6 °C 1007.7 hPa Calm   8 km/h 86% 0 mm WeatherCatV3.04B91 W/m2
00:59 8.7 °C 6.7 °C 1007.3 hPa NE 1.6 km/h 8 km/h 87% 0 mm WeatherCatV3.04B91 W/m2
01:04 8.7 °C 6.6 °C 1007.3 hPa ENE 3.2 km/h 8 km/h 87% 0 mm WeatherCatV3.04B91 W/m2
01:09 8.6 °C 6.7 °C 1007.3 hPa Calm   3.2 km/h 88% 0 mm WeatherCatV3.04B91 W/m2
01:14 8.6 °C 6.7 °C 1007.3 hPa Calm   4.8 km/h 88% 0 mm WeatherCatV3.04B91 W/m2
01:19 8.5 °C 6.8 °C 1007.3 hPa Calm   6.4 km/h 89% 0 mm WeatherCatV3.04B91 W/m2
01:24 8.5 °C 7 °C 1007.3 hPa Calm   4.8 km/h 90% 0 mm WeatherCatV3.04B91 W/m2
01:29 8.5 °C 7 °C 1007.3 hPa Calm   4.8 km/h 90% 0 mm WeatherCatV3.04B91 W/m2
01:34 8.5 °C 7 °C 1007.3 hPa ENE 6.4 km/h 6.4 km/h 90% 0 mm WeatherCatV3.04B91 W/m2
01:39 8.5 °C 7 °C 1007.3 hPa Calm   11.3 km/h 90% 0 mm WeatherCatV3.04B91 W/m2
01:44 8.5 °C 7.1 °C 1007.7 hPa Calm   4.8 km/h 91% 0 mm WeatherCatV3.04B91 W/m2
01:49 8.5 °C 7.1 °C 1007.7 hPa Calm   9.7 km/h 91% 0 mm WeatherCatV3.04B91 W/m2
01:54 8.5 °C 7.1 °C 1007.7 hPa Calm   17.7 km/h 91% 0 mm WeatherCatV3.04B91 W/m2
01:59 8.5 °C 7.1 °C 1007.3 hPa Calm   17.7 km/h 91% 0 mm WeatherCatV3.04B91 W/m2
02:04 8.4 °C 7 °C 1007.3 hPa Calm   6.4 km/h 91% 2.54 mm WeatherCatV3.04B91 W/m2
02:09 8.4 °C 7.2 °C 1007.3 hPa Calm   4.8 km/h 92% 3.56 mm WeatherCatV3.04B91 W/m2
02:14 8.3 °C 7.1 °C 1007 hPa NE 4.8 km/h 4.8 km/h 92% 3.81 mm WeatherCatV3.04B91 W/m2
02:19 8.3 °C 7.3 °C 1007 hPa Calm     93% 4.57 mm WeatherCatV3.04B91 W/m2
02:24 8.2 °C 7.2 °C 1007 hPa NE 4.8 km/h 6.4 km/h 93% 3.3 mm WeatherCatV3.04B91 W/m2
02:29 8.2 °C 7.2 °C 1006.3 hPa NE 11.3 km/h 14.5 km/h 93% 1.78 mm WeatherCatV3.04B91 W/m2
02:34 8.2 °C 7.3 °C 1006.3 hPa Calm   11.3 km/h 94% 1.27 mm WeatherCatV3.04B91 W/m2
02:39 8.2 °C 7.3 °C 1006.3 hPa NE 8 km/h 9.7 km/h 94% 0 mm WeatherCatV3.04B91 W/m2
02:44 8.2 °C 7.3 °C 1006.7 hPa Calm   8 km/h 94% 0 mm WeatherCatV3.04B91 W/m2
02:49 8.2 °C 7.3 °C 1006.7 hPa Calm     94% 0 mm WeatherCatV3.04B91 W/m2
02:54 8.2 °C 7.3 °C 1006.7 hPa NNE 4.8 km/h 8 km/h 94% 0 mm WeatherCatV3.04B91 W/m2
02:59 8.2 °C 7.3 °C 1007 hPa NNE 4.8 km/h 4.8 km/h 94% 0 mm WeatherCatV3.04B91 W/m2
03:04 8.2 °C 7.5 °C 1007 hPa NE 3.2 km/h 8 km/h 95% 0 mm WeatherCatV3.04B91 W/m2
03:09 8.3 °C 7.6 °C 1007 hPa NNE 1.6 km/h 6.4 km/h 95% 0 mm WeatherCatV3.04B91 W/m2
03:14 8.3 °C 7.6 °C 1006.7 hPa ENE 11.3 km/h 16.1 km/h 95% 0 mm WeatherCatV3.04B91 W/m2
03:19 8.3 °C 7.6 °C 1006.7 hPa Calm   6.4 km/h 95% 0 mm WeatherCatV3.04B91 W/m2
03:24 8.3 °C 7.6 °C 1006.7 hPa ENE 3.2 km/h 9.7 km/h 95% 0 mm WeatherCatV3.04B91 W/m2
03:29 8.3 °C 7.6 °C 1006.3 hPa Calm   3.2 km/h 95% 0 mm WeatherCatV3.04B91 W/m2
03:34 8.3 °C 7.6 °C 1006.3 hPa Calm   14.5 km/h 95% 0 mm WeatherCatV3.04B91 W/m2
03:39 8.3 °C 7.6 °C 1006.3 hPa Calm   6.4 km/h 95% 0 mm WeatherCatV3.04B91 W/m2
03:44 8.3 °C 7.6 °C 1005.6 hPa NE 4.8 km/h 8 km/h 95% 0 mm WeatherCatV3.04B91 W/m2
03:49 8.3 °C 7.6 °C 1005.6 hPa Calm     95% 0 mm WeatherCatV3.04B91 W/m2
03:54 8.3 °C 7.6 °C 1005.6 hPa Calm   12.9 km/h 95% 0 mm WeatherCatV3.04B91 W/m2
03:59 8.3 °C 7.6 °C 1005.3 hPa NE 6.4 km/h 6.4 km/h 95% 0 mm WeatherCatV3.04B91 W/m2
04:04 8.3 °C 7.7 °C 1005.3 hPa NNE 6.4 km/h 14.5 km/h 96% 0 mm WeatherCatV3.04B91 W/m2
04:09 8.3 °C 7.7 °C 1005.3 hPa Calm   1.6 km/h 96% 0 mm WeatherCatV3.04B91 W/m2
04:14 8.3 °C 7.7 °C 1005.3 hPa Calm   8 km/h 96% 0 mm WeatherCatV3.04B91 W/m2
04:19 8.3 °C 7.7 °C 1005.3 hPa ENE 6.4 km/h 20.9 km/h 96% 0 mm WeatherCatV3.04B91 W/m2
04:24 8.3 °C 7.7 °C 1005.3 hPa NE 6.4 km/h 8 km/h 96% 0 mm WeatherCatV3.04B91 W/m2
04:29 8.3 °C 7.7 °C 1005.3 hPa NE 6.4 km/h 11.3 km/h 96% 0 mm WeatherCatV3.04B91 W/m2
04:34 8.4 °C 7.8 °C 1005.3 hPa NE 6.4 km/h 11.3 km/h 96% 0 mm WeatherCatV3.04B91 W/m2
04:39 8.4 °C 7.8 °C 1005.3 hPa ENE 3.2 km/h 14.5 km/h 96% 0 mm WeatherCatV3.04B91 W/m2
04:44 8.4 °C 7.8 °C 1005.3 hPa Calm   20.9 km/h 96% 0 mm WeatherCatV3.04B91 W/m2
04:49 8.4 °C 7.8 °C 1005.3 hPa ENE 3.2 km/h 14.5 km/h 96% 0 mm WeatherCatV3.04B91 W/m2
04:54 8.4 °C 7.8 °C 1005.3 hPa Calm   16.1 km/h 96% 0 mm WeatherCatV3.04B91 W/m2
04:59 8.4 °C 7.8 °C 1005 hPa Calm   8 km/h 96% 0 mm WeatherCatV3.04B91 W/m2
05:04 8.5 °C 7.9 °C 1005 hPa Calm   8 km/h 96% 0 mm WeatherCatV3.04B91 W/m2
05:09 8.5 °C 7.9 °C 1005 hPa NE 4.8 km/h 12.9 km/h 96% 0 mm WeatherCatV3.04B91 W/m2
05:14 8.5 °C 7.9 °C 1005.3 hPa Calm   9.7 km/h 96% 0 mm WeatherCatV3.04B91 W/m2
05:19 8.5 °C 7.9 °C 1005.3 hPa NE 4.8 km/h 14.5 km/h 96% 0 mm WeatherCatV3.04B91 W/m2
05:24 8.5 °C 7.9 °C 1005.3 hPa Calm     96% 0 mm WeatherCatV3.04B91 W/m2
05:29 8.5 °C 7.9 °C 1004.6 hPa Calm     96% 0 mm WeatherCatV3.04B91 W/m2
05:34 8.5 °C 7.9 °C 1004.6 hPa ENE 4.8 km/h 14.5 km/h 96% 0 mm WeatherCatV3.04B91 W/m2
05:39 8.5 °C 7.9 °C 1004.6 hPa East 4.8 km/h 9.7 km/h 96% 0 mm WeatherCatV3.04B91 W/m2
05:44 8.6 °C 8 °C 1004.6 hPa Calm   4.8 km/h 96% 0 mm WeatherCatV3.04B91 W/m2
05:49 8.6 °C 7.8 °C 1004.6 hPa Calm   11.3 km/h 95% 0 mm WeatherCatV3.04B91 W/m2
05:54 8.6 °C 7.8 °C 1004.6 hPa Calm   11.3 km/h 95% 0 mm WeatherCatV3.04B91 W/m2
05:59 8.6 °C 7.8 °C 1004.6 hPa Calm     95% 0 mm WeatherCatV3.04B91 W/m2
06:04 8.7 °C 7.9 °C 1004.6 hPa ESE 4.8 km/h 4.8 km/h 95% 0 mm WeatherCatV3.04B91 W/m2
06:09 8.7 °C 7.9 °C 1004.6 hPa NE 3.2 km/h 8 km/h 95% 0 mm WeatherCatV3.04B91 W/m2
06:14 8.7 °C 7.9 °C 1005 hPa ENE 4.8 km/h 17.7 km/h 95% 0 mm WeatherCatV3.04B91 W/m2
06:19 8.7 °C 7.9 °C 1005 hPa Calm   6.4 km/h 95% 0 mm WeatherCatV3.04B91 W/m2
06:24 8.7 °C 7.9 °C 1005 hPa Calm   4.8 km/h 95% 0 mm WeatherCatV3.04B91 W/m2
06:29 8.7 °C 8 °C 1004.6 hPa NE 1.6 km/h 6.4 km/h 95% 0 mm WeatherCatV3.04B91 W/m2
06:34 8.7 °C 8 °C 1004.6 hPa NNE 9.7 km/h 9.7 km/h 95% 0 mm WeatherCatV3.04B91 W/m2
06:39 8.7 °C 8 °C 1004.6 hPa ENE 9.7 km/h 9.7 km/h 95% 0 mm WeatherCatV3.04B91 W/m2
06:44 8.7 °C 8 °C 1004.3 hPa East 4.8 km/h 6.4 km/h 95% 0 mm WeatherCatV3.04B91 W/m2
06:49 8.8 °C 8.1 °C 1004.3 hPa Calm   9.7 km/h 95% 0 mm WeatherCatV3.04B91 W/m2
06:54 8.8 °C 8.1 °C 1004.3 hPa NNE 4.8 km/h 11.3 km/h 95% 0 mm WeatherCatV3.04B91 W/m2
06:59 8.8 °C 8.1 °C 1004.3 hPa Calm     95% 0 mm WeatherCatV3.04B91 W/m2
07:04 8.8 °C 8.1 °C 1004.3 hPa Calm     95% 0 mm WeatherCatV3.04B91 W/m2
07:09 8.8 °C 8.1 °C 1004.3 hPa Calm   4.8 km/h 95% 0 mm WeatherCatV3.04B91 W/m2
07:14 8.8 °C 8.1 °C 1003.6 hPa Calm   4.8 km/h 95% 0 mm WeatherCatV3.04B91 W/m2
07:19 8.9 °C 8.1 °C 1003.6 hPa NE 6.4 km/h 8 km/h 95% 0 mm WeatherCatV3.04B91 W/m2
07:24 8.9 °C 8.1 °C 1003.6 hPa NE 3.2 km/h 8 km/h 95% 0 mm WeatherCatV3.04B91 W/m2
07:29 8.9 °C 8.1 °C 1004.3 hPa Calm     95% 0 mm WeatherCatV3.04B91 W/m2
07:34 8.9 °C 8.1 °C 1004.3 hPa Calm     95% 0 mm WeatherCatV3.04B91 W/m2
07:39 8.9 °C 8.1 °C 1004.3 hPa Calm   6.4 km/h 95% 0 mm WeatherCatV3.04B91 W/m2
07:44 8.9 °C 8.1 °C 1003.9 hPa Calm   1.6 km/h 95% 0 mm WeatherCatV3.04B91 W/m2
07:49 8.9 °C 8 °C 1003.9 hPa ESE 1.6 km/h 16.1 km/h 94% 0 mm WeatherCatV3.04B91 W/m2
07:54 8.8 °C 7.9 °C 1003.9 hPa Calm   3.2 km/h 94% 0 mm WeatherCatV3.04B91 W/m2
07:59 8.8 °C 7.9 °C 1003.6 hPa Calm     94% 0 mm WeatherCatV3.04B91 W/m2
08:04 8.8 °C 7.9 °C 1003.6 hPa NW 9.7 km/h 9.7 km/h 94% 0 mm WeatherCatV3.04B91 W/m2
08:09 8.9 °C 8 °C 1003.6 hPa Calm   9.7 km/h 94% 0 mm WeatherCatV3.04B91 W/m2
08:14 8.9 °C 8 °C 1003.6 hPa ENE 4.8 km/h 6.4 km/h 94% 0 mm WeatherCatV3.04B91 W/m2
08:19 8.9 °C 8 °C 1003.6 hPa Calm     94% 0 mm WeatherCatV3.04B91 W/m2
08:24 8.9 °C 8 °C 1003.6 hPa Calm     94% 0 mm WeatherCatV3.04B91 W/m2
08:29 8.9 °C 8 °C 1004.3 hPa Calm   1.6 km/h 94% 0 mm WeatherCatV3.04B91 W/m2
08:34 8.9 °C 8 °C 1004.3 hPa Calm   1.6 km/h 94% 0 mm WeatherCatV3.04B91 W/m2
08:39 8.9 °C 8 °C 1004.3 hPa Calm     94% 0 mm WeatherCatV3.04B91 W/m2
08:44 8.9 °C 8 °C 1004.6 hPa Calm   4.8 km/h 94% 0 mm WeatherCatV3.04B91 W/m2
08:49 8.9 °C 8 °C 1004.6 hPa Calm   1.6 km/h 94% 0 mm WeatherCatV3.04B91 W/m2
08:54 9 °C 8.1 °C 1004.6 hPa Calm   4.8 km/h 94% 0 mm WeatherCatV3.04B91 W/m2
08:59 9 °C 8.1 °C 1004.3 hPa Calm     94% 0 mm WeatherCatV3.04B91 W/m2
09:04 8.9 °C 8 °C 1004.3 hPa Calm   14.5 km/h 94% 0 mm WeatherCatV3.04B91 W/m2
09:09 8.8 °C 7.9 °C 1004.3 hPa Calm   17.7 km/h 94% 0 mm WeatherCatV3.04B91 W/m2
09:14 8.7 °C 7.8 °C 1003.6 hPa Calm   6.4 km/h 94% 0 mm WeatherCatV3.04B91 W/m2
09:19 8.6 °C 7.6 °C 1003.6 hPa Calm     94% 0 mm WeatherCatV3.04B91 W/m2
09:24 8.6 °C 7.6 °C 1003.6 hPa Calm   4.8 km/h 94% 0 mm WeatherCatV3.04B91 W/m2
09:29 8.5 °C 7.6 °C 1003.3 hPa Calm   1.6 km/h 94% 0 mm WeatherCatV3.04B91 W/m2
09:34 8.5 °C 7.6 °C 1003.3 hPa North 3.2 km/h 9.7 km/h 94% 0 mm WeatherCatV3.04B91 W/m2
09:39 8.4 °C 7.6 °C 1003.3 hPa Calm     95% 0 mm WeatherCatV3.04B91 W/m2
09:44 8.4 °C 7.6 °C 1002.9 hPa East 4.8 km/h 4.8 km/h 95% 0 mm WeatherCatV3.04B91 W/m2
09:49 8.3 °C 7.6 °C 1002.9 hPa NNE 8 km/h 14.5 km/h 95% 0 mm WeatherCatV3.04B91 W/m2
09:54 8.3 °C 7.6 °C 1002.9 hPa NE 1.6 km/h 6.4 km/h 95% 0 mm WeatherCatV3.04B91 W/m2
09:59 8.3 °C 7.6 °C 1003.3 hPa Calm     95% 0 mm WeatherCatV3.04B91 W/m2
10:04 8.2 °C 7.5 °C 1003.3 hPa East 1.6 km/h 4.8 km/h 95% 0 mm WeatherCatV3.04B91 W/m2
10:09 8.2 °C 7.5 °C 1003.3 hPa Calm   3.2 km/h 95% 0 mm WeatherCatV3.04B91 W/m2
10:14 8.2 °C 7.5 °C 1002.6 hPa Calm   4.8 km/h 95% 2.79 mm WeatherCatV3.04B91 W/m2
10:19 8.2 °C 7.4 °C 1002.6 hPa Calm   1.6 km/h 95% 2.54 mm WeatherCatV3.04B91 W/m2
10:24 8.2 °C 7.5 °C 1002.6 hPa Calm   4.8 km/h 95% 2.54 mm WeatherCatV3.04B91 W/m2
10:29 8.2 °C 7.5 °C 1001.9 hPa Calm     95% 1.78 mm WeatherCatV3.04B91 W/m2
10:34 8.2 °C 7.5 °C 1001.9 hPa Calm   11.3 km/h 95% 1.78 mm WeatherCatV3.04B91 W/m2
10:39 8.2 °C 7.6 °C 1001.9 hPa Calm   6.4 km/h 96% 1.27 mm WeatherCatV3.04B91 W/m2
10:44 8.2 °C 7.6 °C 1001.9 hPa East 3.2 km/h 3.2 km/h 96% 1.02 mm WeatherCatV3.04B91 W/m2
10:49 8.2 °C 7.6 °C 1001.9 hPa NE 1.6 km/h 4.8 km/h 96% 1.02 mm WeatherCatV3.04B91 W/m2
10:54 8.2 °C 7.6 °C 1001.9 hPa NNE 4.8 km/h 4.8 km/h 96% 1.27 mm WeatherCatV3.04B91 W/m2
10:59 8.2 °C 7.6 °C 1001.9 hPa Calm   6.4 km/h 96% 1.27 mm WeatherCatV3.04B91 W/m2
11:04 8.1 °C 7.5 °C 1001.9 hPa East 4.8 km/h 4.8 km/h 96% 1.27 mm WeatherCatV3.04B91 W/m2
11:09 8.1 °C 7.5 °C 1001.9 hPa Calm     96% 1.02 mm WeatherCatV3.04B91 W/m2
11:14 8.1 °C 7.5 °C 1001.6 hPa Calm     96% 1.02 mm WeatherCatV3.04B91 W/m2
11:19 8.1 °C 7.5 °C 1001.6 hPa Calm   4.8 km/h 96% 1.52 mm WeatherCatV3.04B91 W/m2
11:24 8.2 °C 7.6 °C 1001.6 hPa Calm     96% 1.52 mm WeatherCatV3.04B91 W/m2
11:29 8.1 °C 7.5 °C 1000.9 hPa ENE 1.6 km/h 6.4 km/h 96% 3.56 mm WeatherCatV3.04B91 W/m2
11:34 8 °C 7.4 °C 1000.9 hPa ENE 9.7 km/h 16.1 km/h 96% 3.05 mm WeatherCatV3.04B91 W/m2
11:39 8 °C 7.4 °C 1000.9 hPa Calm   8 km/h 96% 2.29 mm WeatherCatV3.04B91 W/m2
11:44 8 °C 7.4 °C 1000.6 hPa Calm     96% 2.29 mm WeatherCatV3.04B91 W/m2
11:49 8 °C 7.4 °C 1000.6 hPa Calm     96% 2.29 mm WeatherCatV3.04B91 W/m2
11:54 8 °C 7.4 °C 1000.6 hPa Calm   8 km/h 96% 1.52 mm WeatherCatV3.04B91 W/m2
11:59 8 °C 7.4 °C 999.5 hPa Calm   6.4 km/h 96% 1.52 mm WeatherCatV3.04B91 W/m2
12:04 8.1 °C 7.5 °C 999.5 hPa NE 9.7 km/h 14.5 km/h 96% 1.27 mm WeatherCatV3.04B91 W/m2
12:09 8.1 °C 7.5 °C 999.5 hPa NE 3.2 km/h 9.7 km/h 96% 1.27 mm WeatherCatV3.04B91 W/m2
12:14 8.1 °C 7.5 °C 996.2 hPa NE 9.7 km/h 12.9 km/h 96% 1.52 mm WeatherCatV3.04B91 W/m2
12:19 8.2 °C 7.7 °C 996.2 hPa NNE 4.8 km/h 17.7 km/h 97% 1.52 mm WeatherCatV3.04B91 W/m2
12:24 8.2 °C 7.8 °C 996.2 hPa Calm   20.9 km/h 97% 1.27 mm WeatherCatV3.04B91 W/m2
12:29 8.3 °C 7.9 °C 997.5 hPa Calm   17.7 km/h 97% 1.02 mm WeatherCatV3.04B91 W/m2
12:34 8.2 °C 7.6 °C 997.5 hPa ENE 6.4 km/h 9.7 km/h 96% 0 mm WeatherCatV3.04B91 W/m2
12:39 8.3 °C 7.9 °C 997.5 hPa ENE 4.8 km/h 11.3 km/h 97% 0 mm WeatherCatV3.04B91 W/m2
12:44 8.3 °C 7.9 °C 995.1 hPa Calm   20.9 km/h 97% 0 mm WeatherCatV3.04B91 W/m2
12:49 8.4 °C 7.9 °C 995.1 hPa East 6.4 km/h 22.5 km/h 97% 0 mm WeatherCatV3.04B91 W/m2
12:54 8.5 °C 8.1 °C 995.1 hPa NNE 3.2 km/h 9.7 km/h 97% 0 mm WeatherCatV3.04B91 W/m2
12:59 8.6 °C 8 °C 997.2 hPa East 1.6 km/h 22.5 km/h 96% 0 mm WeatherCatV3.04B91 W/m2
13:04 8.6 °C 8 °C 997.2 hPa NE 3.2 km/h 8 km/h 96% 0 mm WeatherCatV3.04B91 W/m2
13:09 8.6 °C 8 °C 997.2 hPa Calm     96% 0 mm WeatherCatV3.04B91 W/m2
13:14 8.6 °C 8 °C 997.9 hPa Calm     96% 0 mm WeatherCatV3.04B91 W/m2
13:19 8.7 °C 8.1 °C 997.9 hPa Calm   4.8 km/h 96% 0 mm WeatherCatV3.04B91 W/m2
13:24 8.7 °C 8.1 °C 997.9 hPa Calm   1.6 km/h 96% 0 mm WeatherCatV3.04B91 W/m2
13:29 8.7 °C 8.1 °C 997.2 hPa Calm   4.8 km/h 96% 0 mm WeatherCatV3.04B91 W/m2
13:34 8.7 °C 8.1 °C 997.2 hPa Calm   11.3 km/h 96% 0 mm WeatherCatV3.04B91 W/m2
13:39 8.7 °C 8.1 °C 997.2 hPa Calm   20.9 km/h 96% 0 mm WeatherCatV3.04B91 W/m2
13:44 8.8 °C 8.2 °C 996.8 hPa Calm   16.1 km/h 96% 0 mm WeatherCatV3.04B91 W/m2
13:49 8.8 °C 8.2 °C 996.8 hPa Calm   1.6 km/h 96% 0 mm WeatherCatV3.04B91 W/m2
13:54 8.9 °C 8.3 °C 996.8 hPa Calm   6.4 km/h 96% 0 mm WeatherCatV3.04B91 W/m2
13:59 8.9 °C 8.3 °C 996.8 hPa Calm   19.3 km/h 96% 0 mm WeatherCatV3.04B91 W/m2
14:04 9 °C 8.4 °C 996.8 hPa NNE 6.4 km/h 16.1 km/h 96% 0 mm WeatherCatV3.04B91 W/m2
14:09 9.1 °C 8.5 °C 996.8 hPa Calm   6.4 km/h 96% 0 mm WeatherCatV3.04B91 W/m2
14:13 9.2 °C 8.4 °C 996.8 hPa ENE 3.2 km/h 14.5 km/h 95% 0 mm WeatherCatV3.04B91 W/m2
14:19 9.2 °C 8.5 °C 995.5 hPa Calm   9.7 km/h 95% 0 mm WeatherCatV3.04B91 W/m2
14:23 9.3 °C 8.6 °C 995.5 hPa NE 3.2 km/h 16.1 km/h 95% 0 mm WeatherCatV3.04B91 W/m2
14:29 9.3 °C 8.6 °C 995.5 hPa Calm   14.5 km/h 95% 0 mm WeatherCatV3.04B91 W/m2
14:33 9.4 °C 8.6 °C 995.5 hPa Calm   16.1 km/h 95% 0 mm WeatherCatV3.04B91 W/m2
14:39 9.5 °C 8.7 °C 995.5 hPa East 6.4 km/h 19.3 km/h 95% 0 mm WeatherCatV3.04B91 W/m2
14:44 9.6 °C 8.6 °C 995.5 hPa Calm   14.5 km/h 94% 0 mm WeatherCatV3.04B91 W/m2
14:49 9.6 °C 8.6 °C 995.5 hPa Calm   1.6 km/h 94% 0 mm WeatherCatV3.04B91 W/m2
14:53 9.6 °C 8.6 °C 995.5 hPa Calm   16.1 km/h 94% 0 mm WeatherCatV3.04B91 W/m2
14:59 9.7 °C 8.8 °C 994.1 hPa NE 1.6 km/h 4.8 km/h 94% 0 mm WeatherCatV3.04B91 W/m2
15:04 9.8 °C 8.9 °C 994.1 hPa Calm   8 km/h 94% 0 mm WeatherCatV3.04B91 W/m2
15:09 9.9 °C 8.8 °C 994.1 hPa NE 1.6 km/h 3.2 km/h 93% 0 mm WeatherCatV3.04B91 W/m2
15:14 9.9 °C 8.8 °C 994.5 hPa North 9.7 km/h 9.7 km/h 93% 0 mm WeatherCatV3.04B91 W/m2
15:19 9.9 °C 8.8 °C 994.5 hPa ESE 3.2 km/h 11.3 km/h 93% 0 mm WeatherCatV3.04B91 W/m2
15:23 9.9 °C 8.7 °C 994.5 hPa Calm   8 km/h 92% 0 mm WeatherCatV3.04B91 W/m2
15:29 9.9 °C 8.7 °C 994.1 hPa ESE 8 km/h 19.3 km/h 92% 0 mm WeatherCatV3.04B91 W/m2
15:33 9.8 °C 8.5 °C 994.1 hPa Calm   3.2 km/h 92% 0 mm WeatherCatV3.04B91 W/m2
15:39 9.9 °C 8.7 °C 994.1 hPa North 6.4 km/h 6.4 km/h 92% 0 mm WeatherCatV3.04B91 W/m2
15:44 9.9 °C 8.7 °C 994.5 hPa NNE 3.2 km/h 3.2 km/h 92% 0 mm WeatherCatV3.04B91 W/m2
15:49 9.9 °C 8.7 °C 994.5 hPa NNE 14.5 km/h 14.5 km/h 92% 0 mm WeatherCatV3.04B91 W/m2
15:53 9.9 °C 8.5 °C 994.5 hPa Calm   19.3 km/h 91% 0 mm WeatherCatV3.04B91 W/m2
15:59 9.9 °C 8.7 °C 993.8 hPa NE 8 km/h 9.7 km/h 92% 0 mm WeatherCatV3.04B91 W/m2
16:03 9.9 °C 8.7 °C 993.8 hPa ESE 1.6 km/h 8 km/h 92% 0 mm WeatherCatV3.04B91 W/m2
16:09 9.8 °C 8.5 °C 993.8 hPa Calm   3.2 km/h 92% 0 mm WeatherCatV3.04B91 W/m2
16:14 9.8 °C 8.5 °C 993.5 hPa Calm   9.7 km/h 92% 0 mm WeatherCatV3.04B91 W/m2
16:19 9.7 °C 8.5 °C 993.5 hPa South 3.2 km/h 9.7 km/h 92% 0 mm WeatherCatV3.04B91 W/m2
16:24 9.7 °C 8.4 °C 993.5 hPa Calm   1.6 km/h 92% 0 mm WeatherCatV3.04B91 W/m2
16:29 9.7 °C 8.6 °C 992.8 hPa Calm   4.8 km/h 93% 0 mm WeatherCatV3.04B91 W/m2
16:33 9.7 °C 8.6 °C 992.8 hPa NE 6.4 km/h 6.4 km/h 93% 0 mm WeatherCatV3.04B91 W/m2
16:39 9.6 °C 8.5 °C 992.8 hPa Calm     93% 0 mm WeatherCatV3.04B91 W/m2
16:44 9.6 °C 8.5 °C 992.4 hPa Calm     93% 0 mm WeatherCatV3.04B91 W/m2
16:49 9.6 °C 8.5 °C 992.4 hPa Calm     93% 0 mm WeatherCatV3.04B91 W/m2
16:54 9.6 °C 8.6 °C 992.4 hPa Calm   3.2 km/h 94% 0 mm WeatherCatV3.04B91 W/m2
16:59 9.7 °C 8.8 °C 992.1 hPa NE 3.2 km/h 3.2 km/h 94% 0 mm WeatherCatV3.04B91 W/m2
17:04 9.7 °C 8.8 °C 992.1 hPa Calm   4.8 km/h 94% 0 mm WeatherCatV3.04B91 W/m2
17:09 9.7 °C 8.8 °C 992.1 hPa Calm     94% 0 mm WeatherCatV3.04B91 W/m2
17:14 9.8 °C 8.9 °C 991.4 hPa Calm     94% 1.02 mm WeatherCatV3.04B91 W/m2
17:19 9.8 °C 9 °C 991.4 hPa Calm     95% 1.02 mm WeatherCatV3.04B91 W/m2
17:24 9.8 °C 9 °C 991.4 hPa Calm     95% 1.02 mm WeatherCatV3.04B91 W/m2
17:29 9.8 °C 9 °C 991.1 hPa Calm   3.2 km/h 95% 1.02 mm WeatherCatV3.04B91 W/m2
17:34 9.9 °C 9.1 °C 991.1 hPa Calm     95% 1.02 mm WeatherCatV3.04B91 W/m2
17:39 9.9 °C 9.1 °C 991.1 hPa Calm     95% 1.52 mm WeatherCatV3.04B91 W/m2
17:44 9.9 °C 9.3 °C 990.7 hPa Calm   4.8 km/h 96% 4.32 mm WeatherCatV3.04B91 W/m2
17:49 10.1 °C 9.4 °C 990.7 hPa Calm     96% 2.79 mm WeatherCatV3.04B91 W/m2
17:53 10.1 °C 9.4 °C 990.7 hPa Calm   3.2 km/h 96% 2.03 mm WeatherCatV3.04B91 W/m2
17:59 10.1 °C 9.5 °C 990.7 hPa Calm     96% 2.03 mm WeatherCatV3.04B91 W/m2
18:03 10.1 °C 9.5 °C 990.7 hPa Calm     96% 1.52 mm WeatherCatV3.04B91 W/m2
18:09 10.2 °C 9.6 °C 990.7 hPa Calm   3.2 km/h 96% 2.54 mm WeatherCatV3.04B91 W/m2
18:13 10.3 °C 9.7 °C 990.7 hPa Calm     96% 2.29 mm WeatherCatV3.04B91 W/m2
18:19 10.3 °C 9.7 °C 990.4 hPa Calm     96% 5.84 mm WeatherCatV3.04B91 W/m2
18:24 10.4 °C 9.9 °C 990.4 hPa Calm     97% 4.32 mm WeatherCatV3.04B91 W/m2
18:29 10.4 °C 9.8 °C 990.1 hPa Calm     96% 3.05 mm WeatherCatV3.04B91 W/m2
18:34 10.4 °C 10 °C 990.1 hPa Calm     97% 1.52 mm WeatherCatV3.04B91 W/m2
18:39 10.6 °C 10.1 °C 990.1 hPa Calm     97% 1.02 mm WeatherCatV3.04B91 W/m2
18:44 10.6 °C 10.2 °C 989.7 hPa Calm     97% 0 mm WeatherCatV3.04B91 W/m2
18:49 10.8 °C 10.3 °C 989.7 hPa Calm     97% 0 mm WeatherCatV3.04B91 W/m2
18:54 11.1 °C 10.6 °C 989.7 hPa Calm     97% 0 mm WeatherCatV3.04B91 W/m2
18:59 11.2 °C 10.8 °C 989.4 hPa Calm     97% 0 mm WeatherCatV3.04B91 W/m2
19:04 11.6 °C 11.1 °C 989.4 hPa Calm     97% 1.78 mm WeatherCatV3.04B91 W/m2
19:09 11.7 °C 11.3 °C 989.4 hPa Calm     97% 2.79 mm WeatherCatV3.04B91 W/m2
19:14 11.8 °C 11.4 °C 990.1 hPa Calm     97% 2.54 mm WeatherCatV3.04B91 W/m2
19:19 11.9 °C 11.5 °C 990.1 hPa Calm     97% 2.03 mm WeatherCatV3.04B91 W/m2
19:24 12.1 °C 11.8 °C 990.1 hPa Calm     98% 1.78 mm WeatherCatV3.04B91 W/m2
19:29 12.3 °C 12 °C 990.1 hPa Calm     98% 1.02 mm WeatherCatV3.04B91 W/m2
19:34 12.3 °C 12 °C 990.1 hPa Calm     98% 0 mm WeatherCatV3.04B91 W/m2
19:39 12.4 °C 12.1 °C 990.1 hPa Calm     98% 0 mm WeatherCatV3.04B91 W/m2
19:44 12.5 °C 12.2 °C 989.7 hPa Calm     98% 0 mm WeatherCatV3.04B91 W/m2
19:49 12.5 °C 12.2 °C 989.7 hPa Calm     98% 0 mm WeatherCatV3.04B91 W/m2
19:54 12.6 °C 12.3 °C 989.7 hPa Calm     98% 0 mm WeatherCatV3.04B91 W/m2
19:59 12.7 °C 12.4 °C 989.7 hPa Calm     98% 0 mm WeatherCatV3.04B91 W/m2
20:04 12.8 °C 12.5 °C 989.7 hPa Calm     98% 0 mm WeatherCatV3.04B91 W/m2
20:09 12.8 °C 12.5 °C 989.7 hPa Calm   4.8 km/h 98% 2.03 mm WeatherCatV3.04B91 W/m2
20:14 12.8 °C 12.5 °C 990.1 hPa Calm   11.3 km/h 98% 13.72 mm WeatherCatV3.04B91 W/m2
20:19 12.7 °C 12.4 °C 990.1 hPa Calm   6.4 km/h 98% 4.06 mm WeatherCatV3.04B91 W/m2
20:24 12.5 °C 12.2 °C 990.1 hPa Calm   16.1 km/h 98% 7.87 mm WeatherCatV3.04B91 W/m2
20:29 12.3 °C 12 °C 990.1 hPa SW 1.6 km/h 6.4 km/h 98% 8.38 mm WeatherCatV3.04B91 W/m2
20:34 12.2 °C 11.9 °C 990.1 hPa Calm   9.7 km/h 98% 3.81 mm WeatherCatV3.04B91 W/m2
20:39 12.1 °C 11.8 °C 990.1 hPa WSW 4.8 km/h 4.8 km/h 98% 3.05 mm WeatherCatV3.04B91 W/m2
20:44 11.9 °C 11.6 °C 990.1 hPa Calm   8 km/h 98% 3.05 mm WeatherCatV3.04B91 W/m2
20:49 11.8 °C 11.5 °C 990.1 hPa Calm     98% 1.52 mm WeatherCatV3.04B91 W/m2
20:54 11.8 °C 11.5 °C 990.1 hPa Calm     98% 1.27 mm WeatherCatV3.04B91 W/m2
20:59 11.8 °C 11.5 °C 990.1 hPa Calm     98% 2.79 mm WeatherCatV3.04B91 W/m2
21:04 11.7 °C 11.4 °C 990.1 hPa Calm     98% 2.03 mm WeatherCatV3.04B91 W/m2
21:09 11.6 °C 11.2 °C 990.1 hPa Calm     97% 1.27 mm WeatherCatV3.04B91 W/m2
21:14 11.6 °C 11.1 °C 990.1 hPa Calm     97% 0 mm WeatherCatV3.04B91 W/m2
21:19 11.4 °C 10.9 °C 990.1 hPa Calm     97% 0 mm WeatherCatV3.04B91 W/m2
21:24 11.2 °C 10.8 °C 990.1 hPa Calm     97% 0 mm WeatherCatV3.04B91 W/m2
21:29 11.1 °C 10.6 °C 989.7 hPa Calm     97% 0 mm WeatherCatV3.04B91 W/m2
21:34 10.9 °C 10.5 °C 989.7 hPa Calm     97% 0 mm WeatherCatV3.04B91 W/m2
21:39 10.9 °C 10.6 °C 989.7 hPa Calm     98% 0 mm WeatherCatV3.04B91 W/m2
21:44 10.8 °C 10.5 °C 990.1 hPa Calm     98% 0 mm WeatherCatV3.04B91 W/m2
21:49 10.7 °C 10.4 °C 990.1 hPa Calm     98% 0 mm WeatherCatV3.04B91 W/m2
21:54 10.6 °C 10.3 °C 990.1 hPa Calm     98% 0 mm WeatherCatV3.04B91 W/m2
21:59 10.6 °C 10.3 °C 990.1 hPa Calm     98% 0 mm WeatherCatV3.04B91 W/m2
22:04 10.6 °C 10.3 °C 990.1 hPa Calm     98% 0 mm WeatherCatV3.04B91 W/m2
22:09 10.6 °C 10.3 °C 990.1 hPa Calm     98% 0 mm WeatherCatV3.04B91 W/m2
22:14 10.6 °C 10.3 °C 990.1 hPa Calm     98% 0 mm WeatherCatV3.04B91 W/m2
22:19 10.6 °C 10.3 °C 990.1 hPa Calm     98% 0 mm WeatherCatV3.04B91 W/m2
22:23 10.6 °C 10.3 °C 990.1 hPa Calm     98% 0 mm WeatherCatV3.04B91 W/m2
22:29 10.6 °C 10.3 °C 990.1 hPa Calm     98% 0 mm WeatherCatV3.04B91 W/m2
22:34 10.6 °C 10.3 °C 990.1 hPa Calm     98% 0 mm WeatherCatV3.04B91 W/m2
22:39 10.7 °C 10.4 °C 990.1 hPa Calm   6.4 km/h 98% 8.89 mm WeatherCatV3.04B91 W/m2
22:44 10.9 °C 10.6 °C 990.1 hPa WSW 3.2 km/h 8 km/h 98% 3.81 mm WeatherCatV3.04B91 W/m2
22:49 11.1 °C 10.8 °C 990.1 hPa Calm     98% 3.3 mm WeatherCatV3.04B91 W/m2
22:54 11.1 °C 10.8 °C 990.1 hPa Calm     98% 3.05 mm WeatherCatV3.04B91 W/m2
22:59 11.1 °C 10.8 °C 990.1 hPa Calm   8 km/h 98% 2.29 mm WeatherCatV3.04B91 W/m2
23:04 11.1 °C 10.8 °C 990.1 hPa Calm     98% 3.81 mm WeatherCatV3.04B91 W/m2
23:08 11.1 °C 10.8 °C 990.1 hPa WSW 4.8 km/h 8 km/h 98% 5.08 mm WeatherCatV3.04B91 W/m2
23:14 11.4 °C 11.2 °C 990.1 hPa Calm   8 km/h 99% 3.3 mm WeatherCatV3.04B91 W/m2
23:19 11.6 °C 11.3 °C 990.1 hPa Calm   4.8 km/h 98% 2.29 mm WeatherCatV3.04B91 W/m2
23:24 11.6 °C 11.3 °C 990.1 hPa Calm     98% 2.54 mm WeatherCatV3.04B91 W/m2
23:29 11.6 °C 11.3 °C 989.4 hPa Calm     98% 2.29 mm WeatherCatV3.04B91 W/m2
23:34 11.4 °C 11.1 °C 989.4 hPa Calm     98% 1.27 mm WeatherCatV3.04B91 W/m2
23:39 11.4 °C 11.1 °C 989.4 hPa Calm     98% 1.02 mm WeatherCatV3.04B91 W/m2
23:44 11.2 °C 10.9 °C 988.7 hPa Calm     98% 0 mm WeatherCatV3.04B91 W/m2
23:49 11.1 °C 10.8 °C 988.7 hPa Calm     98% 0 mm WeatherCatV3.04B91 W/m2
23:54 10.9 °C 10.6 °C 988.7 hPa Calm     98% 0 mm WeatherCatV3.04B91 W/m2
23:59 10.9 °C 10.6 °C 988.7 hPa Calm     98% 0 mm WeatherCatV3.04B91 W/m2
Bellevue, Nebraska, USA
Compliments of Weather Underground - 3.25 mb